RH
33 27 25 28 29 36 42 43 44 47 53 52 46 47 45 39 34 28 29 40 43 34 31 37 38 41 46 45 40 36 31 32 32 30 31 29 28 27 26 27 26 25 25 25 26 27 28 30 30 32 34 36 40 44 46 45 45 48 50 51 52 53 55 58 61 63 65 68 73 70 60 51 50 51 51 50 52 54 53 53 54 58 62 64 66 68
29 25 29 36 40 47 50 53 56 55 58 55 45 43 40 32 27 24 28 39 39 32 32 40 43 43 48 47 40 36 33 34 33 32 33 29 29 28 27 28 26 25 26 24 25 27 29 30 30 30 31 32 36 41 46 46 43 44 48 49 50 52 54 56 61 66 64 63 69 75 71 61 54 53 52 51 52 53 53 53 53 55 57 61 64 65
21 22 32 44 49 52 54 58 59 51 50 47 39 37 30 23 22 25 34 41 38 32 32 39 42 42 48 47 40 36 35 36 34 33 34 31 31 30 27 28 28 26 27 25 25 26 28 29 29 30 31 32 35 37 42 46 45 42 44 46 47 51 53 56 60 64 66 66 68 72 71 65 58 55 53 53 54 54 54 53 52 54 55 57 59 61
16 22 36 50 50 43 42 46 47 40 35 31 30 28 22 21 26 28 34 40 38 35 35 41 43 42 50 51 43 39 37 36 35 33 34 32 31 31 29 28 28 28 29 28 26 26 26 26 27 29 30 31 34 36 37 42 45 42 42 44 45 49 52 55 59 62 64 67 70 71 71 69 63 59 57 56 57 59 60 57 55 57 58 57 56 58
21 33 46 49 43 34 29 33 35 30 23 24 26 23 21 24 27 27 29 35 37 39 46 47 37 35 50 57 49 42 38 38 36 34 34 33 31 31 30 29 29 29 30 30 28 27 26 25 26 26 27 30 33 34 34 38 44 42 41 42 43 46 49 52 57 61 64 67 66 66 68 68 65 61 59 56 58 62 62 61 61 61 61 59 58 58
23 44 53 42 38 34 25 23 31 32 25 24 24 21 23 25 28 29 31 35 30 27 42 46 27 23 44 56 50 43 41 40 38 37 36 33 32 32 32 31 31 31 30 31 30 28 27 25 25 24 24 28 32 34 35 37 42 43 40 40 41 43 46 51 56 60 63 65 64 64 66 66 64 62 59 57 60 63 63 63 64 63 63 63 62 62
22 40 46 37 36 32 21 18 30 36 28 23 22 25 30 31 34 33 33 38 27 18 33 43 30 24 35 44 45 44 45 43 39 39 38 34 34 34 34 34 33 33 32 32 30 25 24 22 22 24 23 25 29 33 36 36 38 41 39 39 39 40 43 47 52 56 59 61 62 65 67 67 66 64 61 61 63 63 63 64 63 62 64 64 65 65
25 30 35 35 31 23 17 17 27 35 29 21 24 31 36 36 36 35 37 38 31 28 36 41 37 30 26 34 47 48 45 47 43 42 41 37 36 35 34 35 35 35 34 33 31 25 24 23 23 25 25 26 29 32 35 35 36 38 38 38 39 40 42 44 48 51 55 58 61 66 69 69 69 68 66 65 66 66 65 64 62 60 63 64 66 68
28 24 29 36 27 18 18 19 28 37 31 23 28 35 38 40 40 40 40 37 36 36 29 29 34 31 23 30 50 52 45 48 49 46 43 39 37 36 36 37 36 35 34 33 32 27 25 25 24 24 24 26 29 32 34 35 36 36 36 37 38 39 39 40 43 46 49 54 58 63 66 68 70 72 72 71 69 69 69 67 66 64 64 64 64 67
27 30 40 40 25 20 21 21 29 37 31 29 36 35 34 39 43 44 40 37 40 34 20 20 24 27 27 24 36 47 45 51 53 46 44 40 36 35 34 37 38 36 34 32 30 26 23 24 25 25 25 25 27 31 34 35 36 36 35 37 38 39 38 38 41 44 46 49 53 59 62 64 68 70 73 76 75 75 76 75 75 75 73 71 69 68
28 45 54 47 35 30 30 28 33 39 36 37 37 27 23 27 32 38 35 31 33 26 18 19 18 29 39 29 32 47 51 56 57 48 44 39 35 34 33 36 39 39 36 31 26 24 24 24 26 26 27 28 29 31 34 35 36 36 38 39 39 40 40 41 42 43 45 46 49 55 59 60 63 67 73 78 78 79 81 83 87 89 84 79 77 76
27 35 37 45 48 41 37 35 36 42 39 35 27 18 20 22 23 28 26 24 28 24 20 18 19 33 43 39 44 54 54 55 54 49 45 40 36 35 33 33 35 36 35 30 26 25 25 25 25 27 28 29 30 32 35 37 38 38 39 40 41 41 42 42 42 43 44 44 46 50 54 57 60 63 68 72 75 78 81 83 90 94 90 86 82 79
21 20 19 34 45 40 33 27 27 33 30 26 23 21 26 29 32 33 26 27 30 28 24 18 26 39 36 40 52 51 50 49 46 46 44 39 35 32 32 33 33 33 29 24 22 24 26 27 28 29 29 30 32 33 36 40 42 42 40 40 42 42 42 43 43 43 45 45 46 47 50 53 57 60 62 65 70 75 77 77 82 88 90 90 88 81
20 21 20 23 31 34 28 19 21 25 24 28 27 27 32 39 53 54 39 37 37 32 26 20 35 44 30 41 57 47 44 46 40 39 36 33 33 34 34 34 32 29 23 20 19 22 27 29 29 30 31 31 33 36 40 44 44 42 41 41 42 43 43 44 45 45 47 48 47 48 49 50 54 57 59 62 66 69 72 72 74 79 81 83 87 84
24 20 19 18 22 25 24 26 32 28 27 33 27 25 34 40 55 60 46 45 48 40 35 33 42 41 30 45 54 42 42 43 35 31 31 32 32 32 29 25 25 23 20 20 22 24 25 27 30 30 31 33 35 39 45 46 44 42 42 43 44 45 44 45 46 47 48 48 47 49 51 51 52 55 57 60 62 64 66 67 68 71 72 73 78 82
25 18 18 24 27 24 24 32 39 33 27 30 27 28 35 34 43 52 43 42 51 52 50 45 37 30 39 56 53 45 45 37 30 30 31 32 28 23 23 22 23 23 20 20 23 25 25 27 32 32 32 34 37 44 47 44 42 42 44 46 47 47 47 46 47 49 49 49 50 51 53 55 55 56 56 56 58 59 61 63 65 68 69 71 73 78
24 18 19 27 28 25 28 33 38 36 24 23 30 34 34 34 40 51 48 41 49 59 52 39 31 29 43 57 53 49 43 32 32 33 30 30 25 22 23 24 24 23 21 21 24 27 28 29 32 32 33 35 40 48 47 42 41 43 47 50 50 50 50 49 50 52 53 57 59 59 59 60 60 59 57 54 53 56 58 61 64 66 68 71 73 74
32 27 24 27 25 25 34 37 38 42 32 25 32 34 32 36 37 44 57 57 55 60 47 34 40 40 39 49 51 45 39 36 37 33 29 28 24 24 24 23 24 22 20 23 26 27 29 31 32 33 33 36 44 49 44 41 44 46 50 53 52 53 53 53 54 54 56 61 66 67 67 65 62 63 62 58 56 57 58 59 60 63 66 69 71 71
42 34 26 31 29 25 30 29 29 38 39 32 33 34 34 43 45 45 58 64 63 70 61 45 47 45 43 53 54 45 41 41 37 33 31 27 23 25 24 22 21 20 21 26 27 29 32 32 32 33 33 38 48 48 41 43 47 49 53 54 56 58 58 57 57 57 59 62 66 69 71 68 64 65 64 60 59 59 58 59 58 61 64 66 69 71
46 34 25 30 30 24 21 19 21 29 38 37 36 40 41 43 48 49 55 59 62 73 74 67 62 52 50 54 48 43 41 36 34 35 33 28 25 24 22 21 19 20 25 28 29 32 32 31 34 33 34 44 52 46 42 46 49 52 54 55 58 61 61 62 61 60 61 62 65 68 69 68 65 65 64 60 60 60 59 60 59 58 60 64 68 71
44 33 26 24 23 21 17 21 26 28 35 38 38 47 52 47 46 52 60 60 65 75 81 89 83 58 47 46 40 38 36 31 32 33 31 27 23 19 16 18 21 25 28 28 30 32 31 33 34 31 39 52 53 45 44 49 52 55 56 56 59 60 62 65 66 65 65 64 67 68 66 65 63 64 64 62 62 62 60 61 61 59 59 62 67 70
42 36 36 31 24 18 20 34 40 35 35 37 40 47 54 56 57 67 72 61 65 80 84 93 90 60 43 40 33 30 29 28 30 30 27 22 18 19 19 20 24 27 28 29 30 31 32 34 32 38 54 57 48 44 46 52 57 57 54 55 58 59 61 64 66 70 72 71 71 69 67 66 63 62 62 62 63 63 61 62 63 62 62 64 65 68
50 43 44 39 25 18 32 47 43 37 37 39 46 47 49 60 64 74 83 72 72 82 71 74 78 55 39 36 27 25 27 26 27 26 23 18 16 20 23 24 26 27 28 29 29 31 33 33 35 49 58 51 45 45 46 57 65 58 53 56 57 59 60 60 64 71 76 76 73 73 75 71 65 61 60 61 63 65 66 65 64 64 66 68 68 68
54 45 45 37 18 18 40 50 45 46 45 43 53 53 53 65 65 66 75 76 85 85 65 72 82 55 32 27 21 24 27 24 25 24 22 20 20 21 23 25 26 27 28 29 29 31 32 35 44 52 50 45 46 45 48 64 66 52 51 57 55 56 58 58 62 67 73 77 76 76 78 74 67 64 62 63 66 70 71 71 70 69 69 71 71 69
56 40 37 35 25 23 32 37 39 43 39 40 55 60 60 67 70 67 67 72 86 76 57 75 87 54 27 23 23 26 27 24 25 24 22 23 22 20 21 23 25 28 29 30 31 32 33 44 54 52 48 48 48 47 54 62 59 55 58 56 50 51 54 56 59 62 73 82 79 75 74 71 68 67 66 65 67 69 70 73 75 73 72 72 72 72
65 47 36 34 36 36 33 31 33 36 35 37 51 66 70 71 72 69 68 78 84 69 61 77 78 51 31 29 31 29 26 27 28 26 25 25 23 22 22 24 27 29 30 32 34 35 41 52 54 49 49 51 52 55 57 57 62 69 63 49 45 48 51 54 57 62 74 81 77 73 70 67 66 65 65 66 67 67 68 73 76 74 74 74 74 75
62 52 39 33 37 38 34 33 33 38 42 39 48 70 78 75 74 73 74 78 74 73 78 73 63 58 50 40 36 31 28 30 29 26 27 25 23 23 23 25 30 31 32 35 38 42 49 51 49 51 54 54 55 57 58 61 65 64 53 45 48 51 53 58 62 68 76 77 73 71 68 66 65 64 64 65 66 67 67 72 76 77 78 77 76 76
47 46 45 48 50 42 37 39 39 42 43 41 51 70 76 74 78 82 84 75 68 85 90 62 51 65 60 42 35 32 30 31 29 26 27 27 28 27 25 27 31 33 35 40 44 49 51 48 46 51 55 55 57 59 63 65 59 51 50 54 57 60 63 68 71 73 74 72 71 70 68 67 64 63 62 61 62 64 67 72 76 78 77 74 74 76
46 42 51 65 63 47 41 43 41 38 37 41 55 67 70 74 77 81 83 70 64 84 85 58 51 60 49 35 32 30 31 31 28 26 25 28 30 29 28 30 33 36 41 47 50 50 51 51 51 54 56 57 60 63 64 63 59 60 65 67 67 70 70 71 73 72 70 71 70 69 69 66 62 59 58 57 58 61 68 73 74 75 75 72 72 75
50 35 53 74 69 52 43 40 37 36 39 51 66 69 65 65 67 70 69 58 53 61 57 46 47 45 35 32 32 30 30 27 25 27 28 29 31 30 31 34 37 43 49 52 52 51 51 53 53 55 59 59 62 66 67 67 68 70 70 69 71 74 72 70 70 69 69 70 72 73 70 66 62 58 56 58 60 63 69 74 74 75 78 77 76 78
49 35 59 79 69 50 39 35 32 34 44 62 70 65 58 55 55 56 56 51 52 53 44 41 48 45 33 30 30 29 28 25 26 29 30 30 32 33 33 36 42 49 51 52 53 54 56 57 54 54 59 63 67 70 70 70 69 66 63 62 62 65 68 70 70 70 70 69 70 70 65 61 61 59 58 63 66 68 72 77 78 79 81 82 82 82
65 50 61 77 68 42 28 27 27 34 54 73 76 65 55 51 47 45 44 43 46 50 47 48 53 47 33 28 30 29 28 30 31 33 34 33 32 34 36 42 49 52 51 52 55 56 59 61 58 55 60 67 70 70 69 70 71 72 72 70 66 64 66 69 72 73 72 70 67 65 64 65 68 68 69 73 74 72 71 75 82 83 83 85 83 81
84 68 61 76 71 41 26 27 27 35 50 64 71 64 50 43 40 37 35 32 29 34 45 52 49 38 30 31 34 31 32 36 37 38 38 37 36 35 38 45 49 49 51 55 58 58 59 60 60 62 67 72 72 71 72 74 76 76 73 72 71 69 67 68 71 71 70 69 68 68 71 73 74 74 74 74 75 75 72 76 84 85 84 85 81 80
84 78 72 85 78 49 37 32 28 35 38 41 52 51 40 38 40 37 35 31 27 28 33 37 35 32 33 37 37 35 37 39 39 38 37 38 39 38 41 44 45 48 53 55 57 58 57 59 66 72 75 74 73 73 74 75 77 74 67 62 63 66 67 68 71 71 71 70 69 70 73 74 75 74 73 75 78 81 82 83 85 86 85 84 82 82
66 74 78 86 75 52 41 39 41 39 32 39 53 46 35 36 35 31 30 27 27 29 29 30 35 38 38 36 34 36 38 38 38 39 37 36 36 38 44 46 47 53 56 55 57 58 58 64 74 77 75 74 75 75 74 77 77 72 64 58 59 66 70 72 73 71 69 68 69 72 76 77 78 78 78 82 85 87 89 87 83 82 84 84 82 82
64 74 72 63 54 44 40 46 51 35 22 40 56 44 35 37 32 32 39 34 27 27 30 34 39 39 37 35 35 39 41 40 41 40 37 34 34 38 45 48 50 53 55 55 57 59 64 74 79 77 74 73 73 69 71 77 74 64 58 58 63 70 71 68 66 63 63 68 72 76 77 76 76 78 81 85 88 89 90 87 81 81 84 85 82 81
72 70 56 43 41 44 46 49 46 32 27 42 50 40 34 35 29 33 47 44 28 24 32 39 41 40 39 40 41 43 43 47 51 46 36 34 37 40 43 46 48 50 52 54 56 61 72 80 77 74 74 70 66 67 74 76 65 56 60 66 70 73 69 62 61 62 67 74 77 78 78 78 80 81 82 84 88 90 89 88 85 83 85 86 84 82
71 66 53 41 37 42 48 49 46 41 36 42 47 37 28 27 22 25 43 46 29 24 36 42 43 44 44 46 48 47 52 64 67 54 40 38 41 42 45 47 48 48 50 52 59 70 79 80 76 75 74 70 70 73 74 67 58 60 71 75 74 73 66 60 63 69 75 80 81 80 83 87 90 89 86 87 89 91 92 91 88 84 85 87 86 85
66 67 55 38 33 42 49 48 50 50 42 41 43 29 21 25 21 24 46 49 31 29 40 42 44 48 49 51 52 54 67 83 80 59 45 44 45 45 48 50 49 49 50 54 67 78 77 74 74 74 71 71 73 71 64 59 62 72 77 74 71 67 61 62 71 78 83 86 84 83 87 93 95 92 91 90 91 93 95 93 90 86 87 89 89 89
71 68 53 40 37 45 50 45 44 46 40 33 29 22 22 22 20 40 71 64 38 36 43 43 47 51 50 53 57 62 75 86 78 60 48 47 48 49 50 51 50 50 53 62 75 79 73 72 75 73 72 73 70 63 59 62 71 77 73 68 66 62 64 73 81 83 86 87 85 85 90 94 94 94 95 95 96 97 97 95 94 92 92 92 91 90
82 70 52 46 41 40 46 46 42 42 38 28 22 21 22 23 36 66 81 61 40 42 44 43 49 52 50 54 61 65 67 65 60 55 50 50 53 53 51 51 51 52 61 72 76 73 71 75 77 73 72 72 67 63 65 70 75 73 66 63 63 66 74 81 80 79 83 85 85 87 91 93 95 97 99 99 99 100 98 97 97 96 96 96 94 93
83 69 52 49 46 38 38 42 45 43 33 23 19 19 23 41 65 72 57 41 41 47 45 45 49 51 52 55 59 61 59 54 53 55 54 55 57 56 53 51 53 59 69 74 71 69 72 75 73 68 65 67 68 66 64 67 70 68 65 65 69 74 80 80 77 80 85 87 88 91 93 96 99 100 100 100 100 100 98 96 95 95 97 97 95 95
76 66 53 49 49 44 40 45 55 49 28 17 24 28 31 46 58 50 40 41 45 44 46 49 50 50 54 57 57 58 58 56 56 57 58 58 57 56 54 53 58 68 71 67 65 70 75 73 69 67 66 67 65 60 59 62 66 69 70 72 75 79 81 79 79 85 90 92 93 95 97 99 100 100 100 100 99 97 96 94 93 95 96 96 94 92
69 61 55 53 54 55 53 48 45 37 22 16 27 34 34 36 38 37 43 47 44 42 47 52 51 51 53 55 58 59 59 60 60 59 60 60 58 56 55 57 65 72 69 64 66 72 75 72 68 68 70 66 58 56 60 65 68 71 73 74 79 83 81 80 85 92 95 96 96 97 99 100 100 100 101 99 98 97 97 96 95 95 94 93 90 87
51 51 52 55 53 51 49 37 27 24 21 22 27 30 31 34 35 36 41 43 44 45 47 50 53 52 51 53 58 61 62 63 62 61 61 62 59 56 58 64 70 71 67 66 70 74 75 72 70 72 70 63 56 58 63 66 69 72 73 77 83 83 82 86 95 98 98 98 97 98 99 100 100 100 100 100 100 98 94 92 94 95 93 90 87 86
45 47 46 46 41 36 33 25 22 24 24 27 30 30 32 35 35 35 38 42 44 45 44 48 52 52 51 54 59 63 64 64 63 62 62 62 60 59 63 69 72 69 66 67 73 77 74 72 74 74 69 60 58 61 64 67 69 70 73 79 83 82 86 96 100 98 98 98 98 99 100 99 98 97 97 99 99 98 94 92 95 96 92 87 87 88
43 42 39 36 34 37 35 24 22 28 31 34 35 32 32 35 34 34 38 41 42 43 44 47 50 51 52 55 58 63 64 63 63 64 64 63 62 65 69 70 70 69 67 71 78 78 73 73 76 75 68 62 62 64 66 68 69 70 75 82 83 85 94 101 99 96 98 98 98 98 98 96 95 96 97 97 97 98 98 97 97 97 92 87 89 92
39 36 36 34 34 40 37 27 26 31 35 36 35 34 35 36 35 35 36 38 40 43 44 47 50 52 54 54 57 62 62 61 64 66 65 64 67 72 72 67 66 66 67 75 81 76 71 74 76 72 66 64 64 66 67 68 69 72 78 82 85 91 99 101 99 98 97 97 97 97 96 95 95 95 96 95 95 97 98 97 98 98 94 92 95 97
37 35 36 37 39 41 35 29 34 42 44 39 35 35 35 35 36 36 34 35 39 42 46 50 52 53 55 56 57 60 63 63 64 64 66 68 72 75 71 65 65 66 67 74 77 71 72 77 75 70 69 68 67 68 69 69 71 75 80 84 89 96 100 100 100 98 96 95 95 94 95 96 95 94 95 95 95 96 96 97 99 99 97 97 99 100
37 39 41 45 51 52 44 36 41 54 57 47 37 36 37 35 35 35 34 37 41 43 47 52 53 53 55 56 56 58 63 66 64 65 68 71 73 71 66 64 67 66 65 70 70 68 72 76 72 71 72 70 69 69 69 71 74 78 82 87 92 98 101 100 100 98 93 93 93 92 94 96 94 93 95 95 95 95 95 95 95 95 98 99 97 96
40 44 46 47 54 56 46 37 41 50 53 46 38 37 39 38 37 37 38 41 43 44 48 52 54 56 57 55 55 57 62 65 66 68 72 72 70 68 65 65 67 65 65 67 67 67 71 72 71 74 73 70 70 72 73 77 80 81 84 89 94 100 101 100 100 98 94 93 93 93 95 95 94 94 94 94 96 96 95 94 92 90 94 98 96 95
Wind_Speed
2 5 7 6 6 6 5 3 2 3 4 6 6 5 7 8 7 11 9 1 1 5 3 3 3 6 6 3 3 3 4 7 8 9 10 9 9 10 11 12 12 12 13 17 21 23 24 25 26 25 22 22 23 21 21 22 22 21 20 20 20 19 18 17 18 19 18 18 18 16 13 11 10 9 9 8 9 9 10 10 10 11 13 15 16 19
2 7 6 4 4 4 4 2 2 3 3 4 5 5 6 6 9 12 8 2 2 5 3 5 5 6 6 4 3 3 5 7 8 9 9 11 10 9 11 12 13 11 12 16 20 23 25 26 27 26 24 25 24 23 21 21 22 21 20 20 21 20 19 18 18 18 17 17 16 15 15 14 11 8 8 7 10 12 13 13 12 10 10 11 14 16
5 7 4 4 2 1 1 1 3 4 4 3 3 4 6 7 10 9 3 5 3 4 4 5 6 6 8 6 4 4 4 5 6 7 8 10 11 11 12 13 14 15 15 18 21 24 27 28 28 26 25 24 23 22 21 20 21 20 20 21 21 21 19 19 18 19 18 18 17 15 15 15 12 9 9 9 11 13 14 15 15 13 11 10 11 13
5 5 4 2 2 1 1 1 4 5 3 2 3 4 7 9 9 7 1 2 2 6 7 6 7 6 9 7 5 5 4 3 4 5 7 8 10 11 13 13 15 17 18 19 20 23 27 29 28 27 27 25 23 22 21 21 20 19 20 21 22 21 19 19 19 20 20 20 18 16 15 14 12 11 9 8 9 10 12 14 16 15 13 12 11 11
5 3 2 1 2 2 3 2 4 6 5 5 3 4 9 11 10 10 9 8 7 6 6 6 8 6 9 10 7 7 5 2 2 4 7 9 11 12 13 14 15 16 16 18 19 21 25 28 28 28 29 27 24 22 22 22 20 20 20 21 22 21 20 20 19 20 20 20 19 17 16 14 12 11 9 7 8 9 9 10 13 14 14 14 12 11
4 2 1 1 1 1 4 4 5 5 7 6 1 3 11 14 13 14 14 11 8 3 3 1 8 4 7 12 9 7 6 3 2 5 9 10 11 13 14 15 15 15 15 16 18 20 24 27 29 29 29 27 25 23 23 23 21 21 21 21 22 21 21 20 20 20 20 19 19 18 18 16 15 13 11 10 10 11 10 10 12 12 12 14 13 12
2 1 3 2 1 2 6 6 3 3 7 6 1 3 10 13 13 16 13 7 6 5 1 2 6 6 3 8 11 10 8 3 3 6 9 11 12 13 13 13 14 14 14 14 17 20 23 27 29 29 29 28 26 24 23 23 22 22 22 22 22 22 22 21 20 21 21 20 19 19 18 17 16 15 15 15 14 13 11 12 13 12 12 14 14 13
2 3 1 3 3 4 9 8 4 3 6 5 2 5 12 13 13 14 10 5 5 6 2 5 4 8 7 2 9 10 7 3 4 7 10 12 13 14 14 14 14 13 13 14 16 18 21 25 26 27 28 28 27 25 23 22 22 22 22 23 23 24 23 22 21 22 22 21 20 20 18 17 16 16 17 18 17 15 13 12 12 12 13 13 13 14
1 4 5 4 5 7 8 9 5 1 3 5 6 9 12 12 10 9 7 5 4 4 4 3 2 6 9 3 5 8 6 2 5 9 11 13 15 15 15 15 15 14 15 15 16 18 22 25 27 27 28 28 28 26 24 23 23 23 24 25 26 26 25 25 25 25 24 22 22 21 19 18 18 17 18 19 19 18 16 15 13 13 13 13 13 14
1 2 2 1 3 5 8 11 5 2 3 7 9 12 11 7 4 3 4 5 4 3 4 0 1 6 10 8 2 5 4 1 6 8 10 13 15 16 16 15 15 14 16 16 16 19 24 26 27 28 28 29 28 26 25 25 24 26 27 28 28 28 28 28 28 27 26 24 23 21 20 20 20 19 19 20 19 18 17 17 15 14 13 13 14 14
0 1 0 1 1 2 6 10 5 1 3 7 9 11 10 4 3 2 2 3 4 5 4 1 3 8 10 8 2 2 3 2 5 8 10 14 17 17 17 15 14 13 14 16 16 21 27 28 27 28 28 29 30 28 26 25 26 28 29 30 30 30 29 29 29 28 27 26 23 21 21 22 21 21 21 21 20 19 18 17 15 14 15 15 16 16
1 2 0 0 1 1 3 6 1 3 2 5 6 10 10 5 1 1 1 2 4 7 7 6 7 7 9 5 4 6 4 2 4 10 13 17 19 18 18 17 17 15 16 18 17 19 24 26 27 29 29 30 30 29 27 27 28 29 30 31 31 31 30 30 30 29 28 27 25 23 22 22 21 21 21 21 21 20 19 18 16 15 17 17 17 18
1 2 0 0 1 2 4 4 1 3 1 5 7 9 10 8 5 5 6 5 6 9 11 14 13 8 8 2 7 7 4 3 5 9 12 17 19 18 19 19 18 17 18 20 19 20 20 21 25 28 29 29 28 28 28 27 28 29 31 31 30 30 30 30 31 30 29 28 27 25 23 22 21 21 21 21 20 20 19 19 18 17 17 16 16 18
3 2 2 2 1 1 4 7 6 2 5 7 6 8 8 6 6 6 7 7 9 11 15 19 15 8 8 1 8 6 5 3 5 10 13 15 17 17 16 16 16 16 18 19 20 20 19 22 27 29 28 28 28 27 27 27 28 29 31 31 31 31 31 30 31 30 29 28 27 26 24 22 21 21 21 20 19 19 19 19 19 18 17 17 16 18
6 1 3 4 2 4 6 6 3 5 5 3 4 6 6 3 4 5 6 7 10 12 17 17 9 7 8 1 7 4 4 4 7 12 14 14 15 15 15 15 17 18 19 19 20 20 22 28 31 30 30 29 27 25 24 27 29 31 32 32 31 31 31 31 30 29 28 27 26 25 24 23 22 21 21 20 19 18 19 19 19 19 18 18 18 19
6 4 1 3 1 5 9 3 1 4 3 1 1 3 5 4 3 5 8 10 12 12 12 9 6 6 4 4 5 1 2 7 12 16 17 16 18 19 18 19 19 19 20 21 20 21 25 31 31 31 31 29 26 23 24 28 31 32 32 32 32 32 31 31 30 29 28 28 26 25 24 24 23 21 21 21 20 19 19 19 19 19 19 19 19 19
4 4 4 5 1 3 7 3 2 4 3 1 1 3 4 5 3 4 9 10 10 10 8 7 8 7 2 2 2 1 6 13 17 19 19 20 23 23 20 19 19 20 22 22 20 21 25 29 30 31 31 27 24 23 27 32 34 33 32 31 32 32 32 31 30 29 28 27 26 25 24 23 23 22 23 23 23 22 20 19 19 19 19 19 19 19
3 6 4 3 2 2 5 4 4 4 5 3 1 4 5 4 4 1 6 7 8 9 7 9 14 13 9 4 1 5 13 18 18 20 20 21 25 23 20 20 21 23 24 23 23 23 25 28 30 32 30 26 23 25 31 34 34 32 31 31 33 33 32 32 31 29 27 26 25 24 23 22 22 22 22 23 23 23 22 21 20 19 19 19 19 19
1 6 3 2 3 4 2 3 2 5 6 4 3 3 4 2 2 2 4 7 9 10 9 10 14 14 10 5 4 10 15 16 18 21 23 24 24 21 20 23 25 25 23 21 23 22 22 27 31 33 30 25 23 28 34 35 33 31 31 32 32 32 33 32 31 30 27 26 25 23 23 23 23 23 22 22 23 23 23 22 21 20 20 19 19 20
2 4 2 2 2 6 1 1 4 4 4 4 5 3 2 2 4 4 4 5 8 11 11 12 13 9 3 1 4 10 13 17 23 24 24 24 23 22 23 24 24 23 21 21 22 21 22 28 33 34 29 23 24 31 35 35 33 31 32 32 31 32 33 33 32 30 28 26 25 24 24 24 24 24 23 23 24 24 24 24 23 22 21 20 19 19
2 2 4 3 2 5 3 4 6 5 2 1 2 3 3 2 3 4 4 4 3 8 10 11 13 8 1 2 3 10 16 23 27 25 23 23 25 28 28 26 23 21 22 22 21 21 23 28 34 35 27 21 26 34 36 34 31 30 30 31 31 31 31 31 31 29 29 28 26 25 25 24 24 23 23 24 24 24 24 25 25 24 22 21 20 19
2 2 5 7 6 7 5 4 3 3 4 3 5 4 3 4 5 6 6 2 1 5 8 10 14 12 2 2 5 13 19 25 26 24 23 25 29 31 28 27 24 23 23 23 22 22 21 26 33 30 24 25 32 37 36 33 31 31 31 30 30 30 29 30 30 29 29 28 26 25 25 25 24 23 23 23 24 24 24 24 24 25 24 23 22 21
3 2 4 6 6 5 3 4 3 7 9 6 4 3 2 2 4 6 8 8 6 7 8 10 15 13 1 2 11 18 21 25 24 23 25 27 29 29 27 27 27 25 25 24 24 21 22 28 29 23 24 31 36 37 34 31 30 31 32 30 30 30 30 30 29 28 29 28 26 25 24 24 24 23 23 23 24 24 25 25 24 25 25 24 24 23
1 2 3 5 6 3 4 5 4 6 6 4 5 5 4 3 3 4 7 8 8 8 8 9 13 12 3 6 17 21 23 25 22 22 27 26 24 26 28 28 27 26 27 26 24 22 24 28 24 22 28 33 35 36 33 30 32 33 32 30 31 31 31 30 29 29 29 27 25 23 22 22 23 24 24 24 24 25 26 26 26 25 25 25 25 25
1 1 4 6 7 6 3 2 1 0 3 4 3 4 4 4 3 4 6 6 6 8 9 10 13 13 11 15 21 23 27 27 22 23 26 25 24 25 25 27 27 26 26 26 26 24 23 22 19 23 31 33 35 36 32 32 34 33 30 31 33 33 31 30 29 30 30 27 23 21 22 22 22 23 24 24 26 26 27 27 26 26 26 26 26 26
2 1 4 5 6 8 8 7 7 8 8 6 1 3 3 6 6 4 6 6 8 11 12 12 14 18 21 23 23 26 28 26 25 25 25 24 26 28 27 27 26 25 26 27 27 23 20 17 19 27 32 33 34 34 34 35 33 29 30 35 36 34 32 32 32 31 29 26 23 22 23 23 22 23 24 25 26 27 28 27 26 27 27 26 26 26
0 1 4 6 5 7 9 12 12 11 10 11 10 3 3 4 5 3 5 7 11 15 14 12 15 24 29 26 24 26 26 25 27 28 26 25 28 30 29 28 27 25 25 25 23 20 19 20 23 28 32 35 35 35 35 35 32 32 35 38 37 34 33 33 33 31 28 25 24 23 24 24 24 26 27 27 27 28 28 28 27 28 27 26 26 26
0 1 4 6 7 9 12 15 13 9 10 15 15 6 1 1 2 1 6 11 13 13 13 14 20 27 29 27 26 26 25 26 28 29 28 27 28 29 29 29 30 29 26 23 21 20 22 26 25 25 31 36 36 35 35 34 35 37 36 35 34 33 32 32 31 31 29 27 26 26 25 26 27 29 30 30 30 30 28 27 27 27 26 25 25 27
1 1 3 3 9 12 13 11 9 10 12 12 10 6 3 4 5 7 12 14 12 11 16 22 28 28 27 27 28 26 26 28 29 28 29 29 29 30 30 31 31 28 26 23 22 22 25 27 24 24 30 34 34 35 36 35 35 35 34 34 34 32 32 32 31 30 28 27 28 27 28 29 31 32 33 33 32 31 29 28 27 26 27 27 26 26
1 3 5 2 9 13 9 6 7 13 13 6 1 1 3 7 9 10 13 16 16 16 20 25 29 28 25 25 26 25 26 28 27 28 30 31 32 33 33 32 29 27 24 23 24 26 25 25 25 26 30 33 33 35 34 32 33 35 37 39 38 37 36 35 33 30 28 28 28 29 30 32 33 34 33 32 31 29 28 29 28 26 27 28 27 25
3 5 5 2 6 8 6 8 13 13 7 0 2 1 7 11 10 8 10 14 16 18 23 26 26 23 19 20 25 27 28 29 30 31 32 30 30 32 32 31 28 25 25 26 27 27 25 25 25 26 28 30 31 31 31 33 37 40 41 42 42 42 40 37 35 32 31 30 30 31 33 33 34 33 31 29 27 27 28 29 28 28 28 28 27 26
5 4 2 2 4 5 7 14 21 12 2 5 1 4 9 12 11 10 10 11 14 20 27 27 22 18 18 22 28 31 31 33 33 32 31 30 31 32 30 28 26 25 28 29 28 27 26 26 26 26 27 28 29 30 33 35 36 35 36 39 41 41 40 38 36 33 32 31 31 32 33 31 31 30 27 26 25 26 28 29 28 29 29 27 26 25
3 3 4 4 4 7 10 17 20 11 1 2 2 3 8 13 17 17 15 15 19 20 20 20 18 19 23 28 33 34 33 32 30 28 28 29 32 32 28 25 26 28 29 27 27 27 25 26 28 27 25 26 29 33 35 33 29 29 33 37 39 39 38 36 34 32 32 31 31 31 30 28 28 27 26 26 26 27 29 29 28 28 27 24 24 24
2 2 3 2 3 8 14 18 15 6 4 4 2 4 8 13 17 20 22 24 24 20 17 19 20 24 28 30 33 35 33 30 28 29 29 27 26 25 25 27 29 29 28 26 26 25 24 26 26 24 24 29 32 34 34 30 26 27 32 38 40 37 35 34 32 30 29 29 29 29 28 28 27 26 27 27 27 29 30 28 26 25 23 22 22 22
4 3 1 0 2 6 10 13 9 7 7 2 6 3 8 11 15 23 27 26 25 24 23 23 24 27 31 32 32 33 33 32 30 31 31 27 22 20 23 28 30 29 28 27 26 26 26 25 22 22 28 31 31 32 32 28 27 31 36 40 38 33 30 31 29 28 29 29 29 28 27 27 27 27 28 27 27 29 29 25 22 21 20 20 20 20
4 3 1 1 2 4 6 7 6 8 10 0 7 1 8 10 14 21 24 24 24 23 21 24 28 31 33 34 32 29 32 34 29 26 25 24 22 21 23 25 27 28 28 27 28 29 28 24 23 27 33 33 32 32 30 27 30 38 42 39 33 26 27 30 30 29 30 28 27 28 29 31 31 30 29 28 27 27 25 22 20 19 19 19 19 19
2 1 2 3 2 2 6 6 5 10 9 2 2 5 8 11 16 20 21 22 20 18 21 27 33 34 33 34 32 30 32 31 24 19 20 21 23 26 27 26 27 28 28 32 35 31 25 24 27 31 34 35 36 33 27 29 37 42 39 33 26 24 28 30 29 29 28 26 26 30 33 34 33 31 28 26 25 24 23 22 21 19 18 18 18 18
3 1 2 4 2 2 6 6 4 8 6 2 4 9 9 13 21 22 20 19 14 18 26 30 33 34 34 32 32 31 28 24 20 18 19 23 27 29 28 29 31 32 33 37 36 27 22 25 29 32 33 34 34 30 30 38 42 37 30 26 25 27 29 29 28 28 27 25 28 32 34 33 30 28 26 24 23 22 22 22 21 18 16 17 17 17
3 1 1 2 3 3 5 5 4 5 4 3 7 12 15 20 24 21 16 13 13 23 29 30 32 34 32 31 32 28 20 17 18 19 23 28 31 29 28 28 31 36 39 35 25 21 26 31 32 33 32 30 29 32 37 41 38 29 26 28 29 29 29 28 27 28 26 26 30 33 33 31 29 27 24 22 22 23 22 21 19 16 15 16 16 17
2 2 2 3 4 4 5 5 3 3 4 5 9 15 21 25 22 17 13 11 17 27 29 29 32 33 30 29 28 22 16 15 18 23 30 35 33 32 33 31 32 38 39 28 20 23 32 34 31 31 30 28 31 36 37 36 31 26 28 31 31 29 28 27 27 28 28 29 32 34 32 30 29 27 24 22 22 23 21 18 16 15 15 16 16 16
1 1 1 3 5 6 6 6 5 4 5 7 12 19 23 21 15 13 13 15 22 28 28 28 30 29 28 27 22 16 16 19 22 27 33 35 34 35 37 39 41 40 31 24 26 32 35 31 28 29 31 33 35 36 34 32 29 29 30 30 28 28 27 28 30 30 30 30 33 34 32 30 29 26 25 24 23 21 17 15 15 15 15 15 16 16
2 2 2 2 5 5 5 6 8 4 1 9 20 22 19 15 12 12 15 19 25 27 27 27 27 25 26 25 21 19 21 26 29 29 30 32 33 32 34 40 41 33 25 27 34 37 32 27 28 31 34 34 33 32 34 35 32 31 31 28 27 28 28 29 31 30 29 31 33 33 32 31 29 26 25 24 20 17 15 14 15 15 15 15 16 17
2 4 4 2 3 5 5 5 5 4 5 16 23 17 11 11 13 15 18 22 24 26 25 24 23 24 25 25 24 26 27 29 30 29 29 31 31 30 34 36 31 24 26 34 38 36 30 28 31 34 33 30 30 33 36 35 33 31 29 28 29 29 28 30 31 29 28 30 32 32 32 31 30 28 25 21 16 14 15 15 15 15 15 15 16 16
1 2 4 2 1 2 4 3 4 8 12 17 17 13 12 15 16 17 20 21 21 22 21 19 21 25 26 26 28 29 29 29 29 29 30 31 28 29 32 31 26 25 31 36 36 32 29 31 33 33 28 27 33 37 35 33 31 30 30 30 30 29 29 31 30 28 28 29 30 32 32 32 32 32 26 19 15 14 15 15 15 15 15 15 15 16
1 1 4 3 1 2 5 8 10 12 13 15 14 14 17 19 18 21 22 21 20 20 19 19 22 25 27 28 29 28 27 28 29 30 30 29 29 30 30 26 25 29 35 38 33 29 30 33 31 28 27 31 36 36 33 31 30 29 30 31 29 29 31 32 31 29 28 29 31 32 32 32 33 31 25 18 14 14 15 15 15 15 14 14 15 15
1 1 2 4 5 7 8 10 11 13 14 16 16 15 17 18 19 22 23 20 20 21 20 20 23 25 27 28 27 26 27 29 31 31 28 27 29 29 26 25 27 32 37 36 31 29 33 32 27 26 31 36 37 35 33 31 29 29 30 30 28 29 30 30 30 29 28 29 31 31 30 29 28 27 25 21 17 15 15 15 15 14 13 14 14 13
1 0 3 5 8 9 8 9 12 15 17 18 17 16 17 19 20 21 21 20 22 24 23 25 27 28 29 28 26 27 29 30 31 30 27 26 27 24 22 26 32 36 37 32 28 31 33 29 25 28 33 37 38 35 32 30 29 29 30 28 28 30 30 29 29 29 29 29 29 28 27 25 25 25 25 23 21 18 16 16 16 13 12 13 13 11
1 1 3 6 8 8 11 13 16 17 16 15 15 16 17 20 23 25 26 27 29 30 30 33 33 29 26 27 27 28 29 29 29 28 27 26 23 19 21 30 36 38 37 31 28 31 31 26 26 31 34 37 37 34 32 31 30 29 29 28 29 30 30 29 28 28 28 28 26 25 24 24 24 24 23 23 23 21 18 18 17 13 12 13 11 8
3 3 4 7 8 8 10 13 17 18 15 15 18 19 19 21 24 27 29 31 30 29 30 34 37 34 31 30 29 29 30 30 28 29 29 26 21 22 29 36 37 38 38 33 30 32 30 27 29 34 35 36 35 33 32 31 29 29 29 28 29 30 30 29 28 26 25 25 23 22 22 22 22 22 21 22 23 22 22 22 18 13 13 12 10 8
5 5 5 6 6 6 9 13 16 15 12 13 19 22 23 24 25 25 26 27 27 27 27 29 34 38 38 37 35 31 28 27 30 31 28 23 24 31 38 40 38 39 38 35 33 33 30 29 33 35 35 35 34 32 31 31 30 30 29 28 30 30 30 29 28 25 24 23 22 22 22 22 21 21 21 21 21 22 24 23 18 14 12 12 11 12
4 5 5 6 5 8 11 13 13 12 11 14 19 21 23 26 25 23 25 25 26 31 33 29 28 30 33 37 41 37 29 29 35 35 28 26 34 39 39 39 39 38 36 34 33 33 32 33 35 34 34 34 33 32 31 31 31 30 29 29 29 29 29 28 26 23 23 23 22 23 23 22 21 21 21 21 20 20 20 21 19 16 14 12 11 11
Wind_Direction
333 44 41 26 6 346 349 352 322 301 285 287 286 279 281 286 296 296 298 78 75 305 264 207 199 161 149 125 83 69 57 53 46 42 36 29 26 21 19 18 14 16 13 8 9 8 8 7 4 1 356 351 348 348 349 350 351 351 351 352 351 351 350 350 352 350 347 345 346 345 343 349 1 14 22 24 20 14 10 359 338 312 290 275 261 251
17 49 38 356 342 322 334 337 259 270 264 273 281 287 291 297 309 305 302 130 116 322 285 179 188 178 156 140 115 91 62 55 45 40 35 25 23 19 16 14 11 14 9 9 10 7 6 4 1 360 355 351 347 344 344 346 347 346 348 350 348 347 346 346 346 345 343 341 338 333 328 331 339 359 15 21 25 26 25 22 12 354 328 301 280 266
51 51 19 350 16 313 344 162 234 265 245 250 284 291 310 327 321 304 268 148 136 325 291 202 217 206 163 154 139 104 78 72 57 46 37 21 18 14 11 9 6 7 7 7 7 5 4 360 356 355 351 348 344 339 339 339 342 343 344 347 346 343 342 341 342 340 336 333 329 324 319 319 318 330 355 12 19 19 19 19 16 10 358 334 306 285
53 38 21 38 79 319 320 218 287 296 265 294 315 314 325 336 330 309 269 136 230 284 278 248 252 225 168 165 158 134 113 97 76 51 41 22 18 13 7 7 5 5 4 2 3 2 359 355 353 350 346 343 338 336 337 335 336 338 339 341 342 341 339 337 337 337 334 329 325 321 319 314 305 307 322 352 9 5 4 8 9 8 3 351 329 304
71 48 49 123 133 334 315 328 352 341 340 337 325 336 329 324 316 296 294 309 293 259 248 258 271 239 181 187 179 160 165 126 73 37 33 22 16 10 5 6 5 4 2 358 358 356 353 351 348 345 341 337 334 333 334 333 330 330 333 336 339 340 337 334 333 333 332 330 327 324 325 322 316 314 315 332 351 351 351 355 356 356 356 353 340 316
76 98 198 355 96 269 320 2 27 349 334 336 331 345 322 313 306 293 297 313 309 266 160 264 297 286 179 190 184 165 174 155 65 28 22 16 11 7 2 1 359 358 358 356 353 351 349 346 343 340 339 335 331 329 330 329 325 323 326 330 336 338 335 332 330 331 330 327 326 326 326 325 323 323 324 329 337 340 341 342 342 343 343 345 341 321
45 152 187 23 318 282 353 13 42 349 333 341 47 335 313 306 298 294 305 312 304 319 81 203 288 296 235 193 181 166 167 154 49 27 18 11 6 3 359 355 353 351 351 351 348 347 344 341 338 336 336 334 329 326 326 326 323 320 321 324 329 333 333 330 326 328 328 324 323 321 320 319 317 316 316 320 325 328 330 332 334 335 334 336 337 326
359 338 35 28 342 359 6 358 14 5 329 330 15 333 309 299 292 294 306 285 278 320 286 198 240 283 294 232 166 166 174 177 15 10 8 5 1 356 352 349 346 344 343 342 341 341 339 337 335 331 331 330 327 325 323 323 323 320 318 320 323 326 328 328 325 324 323 321 318 316 313 312 312 311 311 313 316 318 320 323 326 327 328 329 329 328
327 347 16 4 1 18 355 334 345 330 287 313 329 316 299 292 291 287 290 275 270 323 304 193 188 285 297 319 143 165 186 202 6 1 0 359 355 349 345 342 341 338 337 336 334 335 335 333 331 329 328 326 324 323 321 320 320 318 317 317 319 321 322 323 323 322 321 320 316 312 308 307 307 306 307 309 309 312 314 315 319 321 322 321 319 322
307 18 16 297 21 16 334 323 322 212 277 315 310 296 282 265 263 264 273 282 261 284 317 203 226 306 302 298 232 176 181 34 3 354 355 353 349 345 340 336 335 335 335 332 329 329 330 328 326 326 326 325 324 322 319 318 316 317 319 319 318 319 319 320 321 320 319 319 316 311 306 303 303 303 304 304 304 307 309 309 312 317 319 318 317 315
81 72 260 215 42 7 316 311 311 161 282 300 306 310 308 272 216 199 233 272 285 295 326 347 311 315 302 294 325 105 136 87 358 348 351 346 344 342 338 333 330 328 327 325 323 325 327 325 325 327 326 326 325 321 317 316 316 319 320 320 319 317 315 316 318 317 316 315 313 308 305 303 302 303 304 302 302 304 305 304 303 308 312 314 315 314
105 145 166 226 312 273 269 284 280 136 239 299 334 343 342 328 276 221 250 302 319 309 309 318 320 296 281 296 80 97 117 121 359 352 348 343 343 341 338 334 329 325 325 326 327 327 326 326 327 329 328 325 322 319 317 315 317 320 320 320 318 315 314 313 314 314 312 311 309 306 305 303 302 303 304 303 303 304 304 304 301 300 304 307 311 314
33 143 357 203 178 282 289 308 3 144 349 356 5 4 359 354 358 349 339 338 308 295 295 314 328 295 273 324 118 124 93 60 353 350 344 340 340 337 336 334 330 330 331 332 330 326 325 327 328 328 326 323 319 317 316 317 319 320 320 319 316 313 312 311 311 311 308 307 305 304 305 304 304 303 304 303 302 303 303 304 304 301 300 299 302 307
9 135 27 29 138 269 330 354 357 334 356 12 18 18 16 6 350 326 326 324 299 294 299 313 328 304 290 5 141 133 60 25 346 349 340 336 337 337 336 332 330 331 332 333 329 325 324 325 325 324 323 321 318 316 317 319 320 319 318 318 315 312 311 310 309 308 306 304 302 303 303 303 304 304 304 303 302 302 302 301 301 298 295 293 291 295
341 333 30 31 10 345 9 25 350 304 327 28 48 38 38 16 327 299 306 309 296 297 301 305 309 294 307 41 143 126 36 353 347 348 340 341 344 339 335 335 335 333 333 332 326 323 323 322 322 322 322 320 318 317 320 322 321 319 317 316 314 313 311 310 309 307 305 303 302 302 303 302 302 302 301 300 298 299 300 299 298 294 291 288 285 287
323 286 326 21 312 348 10 33 238 297 306 103 94 52 31 344 281 265 282 284 284 290 294 289 271 281 319 96 122 130 338 344 349 348 347 350 346 341 339 338 335 331 330 328 321 320 323 322 321 322 321 319 318 319 323 324 321 317 315 314 313 313 311 310 309 307 305 305 303 301 302 301 300 299 297 297 296 296 296 295 294 292 289 288 284 282
320 298 345 4 297 39 28 26 19 347 323 316 346 7 351 302 248 269 286 283 284 283 280 284 287 294 319 115 134 247 333 352 354 350 348 346 342 343 340 331 326 325 325 322 318 320 322 321 320 321 319 316 317 323 324 323 321 317 313 313 313 313 312 310 309 307 305 304 300 297 298 298 298 296 295 294 294 293 293 291 290 290 288 287 285 282
311 295 315 330 292 49 85 98 77 30 327 317 6 342 319 253 193 212 293 295 295 281 277 293 295 302 313 308 41 6 352 354 350 343 341 341 342 339 329 321 319 321 321 318 319 320 321 321 320 322 318 312 316 324 326 324 320 316 315 314 314 314 312 310 309 307 305 304 299 296 295 295 296 295 293 293 293 293 292 289 288 288 287 286 284 283
260 284 298 145 304 327 117 137 70 48 19 41 86 1 337 295 259 294 306 303 300 293 291 293 293 300 310 312 358 357 351 347 340 337 339 340 338 329 321 321 318 318 320 319 321 322 321 320 320 322 318 311 316 325 327 324 318 316 317 316 314 312 312 312 309 307 305 303 299 297 295 296 297 297 295 294 293 293 291 289 289 288 286 284 282 281
229 281 326 132 291 311 344 27 342 16 49 83 101 69 37 320 284 296 307 295 297 301 305 307 303 305 322 7 348 341 344 346 341 338 336 334 330 324 321 319 317 319 321 321 323 323 322 320 320 321 317 312 319 326 327 323 318 317 317 316 315 313 312 312 309 307 305 303 300 298 297 299 302 301 299 297 295 294 292 291 290 289 287 285 281 281
248 243 294 298 303 307 350 29 347 341 354 354 12 14 16 340 292 280 263 235 277 302 307 310 301 300 16 93 344 341 346 346 341 335 331 328 325 323 320 317 318 321 321 323 325 323 323 322 320 320 317 314 322 327 326 321 318 317 317 316 315 315 314 312 309 306 305 304 301 298 298 303 306 305 302 299 297 295 293 290 289 288 288 285 282 281
316 238 285 314 333 334 5 37 347 9 53 14 351 352 360 352 337 319 293 256 299 296 296 297 292 300 346 123 337 345 344 340 337 334 330 325 321 320 320 320 322 322 323 324 324 323 325 323 321 322 322 322 326 327 325 321 320 319 318 317 315 315 314 312 310 307 305 304 301 298 300 305 307 305 303 300 296 294 292 289 286 286 285 284 282 281
323 270 273 301 309 318 45 78 67 87 98 91 74 63 41 18 5 346 315 308 315 295 289 287 288 297 4 91 339 342 337 333 335 332 326 324 322 320 320 322 323 322 323 324 323 324 324 322 323 326 327 326 327 326 323 321 321 319 318 317 316 315 314 312 311 309 306 304 301 299 301 303 305 305 304 302 297 295 292 288 284 283 282 280 279 278
301 287 300 308 302 280 135 114 95 114 123 98 76 67 63 73 14 323 290 299 307 293 298 299 286 285 293 337 334 333 328 328 332 329 324 323 322 320 320 322 323 322 322 323 323 323 323 323 326 329 330 329 327 325 322 320 319 319 318 318 317 315 313 311 311 310 308 304 300 300 300 302 305 306 306 306 302 298 295 291 288 283 279 278 277 276
351 5 331 331 335 339 348 359 8 227 311 340 58 83 78 75 32 298 265 280 287 280 300 303 284 282 302 322 326 323 322 325 327 325 323 321 320 321 321 322 323 322 321 321 322 323 323 326 329 330 330 329 326 324 322 319 319 320 319 319 318 314 312 310 309 310 309 304 301 303 305 305 305 305 305 306 304 300 296 294 292 287 282 280 279 278
329 8 3 4 350 335 325 316 320 325 321 323 22 102 82 65 49 350 297 292 293 296 300 286 276 288 303 313 318 318 321 324 324 322 319 319 321 322 323 323 323 323 322 321 321 323 325 328 328 328 328 329 328 325 322 322 323 323 321 320 318 313 310 309 308 307 306 304 305 307 308 307 306 306 305 303 301 300 297 293 291 290 286 282 281 278
243 115 24 4 314 292 295 296 307 319 315 309 315 333 97 79 64 27 310 296 298 302 293 273 281 297 303 309 317 320 322 324 324 322 318 320 324 323 323 323 322 322 322 321 321 323 328 329 327 327 329 331 330 327 326 328 329 324 322 322 320 318 317 315 314 312 310 309 310 309 308 309 308 307 305 301 299 297 295 290 287 288 287 282 281 280
259 107 7 335 286 274 285 291 299 311 307 306 310 317 76 19 21 346 292 293 302 303 291 290 301 302 302 309 318 323 325 324 323 322 320 321 322 321 321 321 320 321 322 323 325 327 328 327 325 327 330 330 329 330 331 331 327 325 325 325 325 324 324 323 321 317 313 310 309 307 306 307 307 306 304 301 298 294 290 285 281 283 284 281 280 280
178 358 3 311 291 296 295 291 301 312 308 307 310 310 314 315 321 312 293 292 299 290 285 298 305 302 302 311 320 325 326 322 321 322 321 320 319 319 321 321 320 322 324 326 328 328 327 326 327 329 331 331 332 333 332 330 330 333 335 332 330 327 325 322 318 315 312 307 304 303 303 303 303 301 299 297 295 292 288 284 281 281 283 283 281 281
198 338 8 329 297 303 296 280 305 317 316 319 350 351 324 313 309 303 292 295 299 282 280 294 299 298 304 314 320 325 324 320 320 321 320 320 320 320 320 320 320 322 326 328 327 326 326 327 329 329 329 333 335 334 335 337 340 340 336 332 328 322 319 316 312 309 307 303 300 300 300 299 298 296 294 292 290 290 288 286 283 281 281 282 281 280
356 351 10 3 296 296 300 306 316 324 327 329 125 48 329 317 311 301 290 298 304 295 294 301 299 299 311 321 321 322 322 321 321 322 321 320 319 318 319 320 321 323 325 326 326 325 325 327 331 330 329 334 338 340 342 340 335 331 327 325 322 317 313 310 306 303 303 301 299 298 297 295 294 292 291 289 288 291 291 287 283 279 277 278 279 279
8 355 345 3 308 299 331 327 321 325 110 138 88 352 337 332 328 320 306 299 303 304 306 308 308 311 323 326 323 322 322 323 323 323 322 320 317 316 317 320 322 324 324 325 326 326 325 327 330 329 331 337 341 340 337 331 327 325 324 324 322 318 315 312 308 306 306 304 302 300 299 297 297 295 293 291 292 294 293 288 281 276 274 273 276 279
22 350 336 359 317 305 333 330 313 305 146 111 29 13 353 342 327 316 313 310 310 310 309 310 313 320 325 325 323 321 322 322 323 321 319 317 315 313 316 321 323 322 323 324 325 326 326 327 328 331 338 342 339 333 328 325 324 325 326 325 321 319 318 316 312 309 308 307 308 307 307 306 305 303 301 298 296 294 290 285 278 272 270 271 276 279
28 353 349 7 315 309 324 322 309 310 3 356 87 83 3 336 322 317 317 316 316 315 310 307 313 321 324 323 320 319 319 321 321 317 313 312 311 311 318 322 321 321 321 322 323 325 325 325 330 339 343 338 331 327 324 323 325 327 327 325 321 317 316 315 312 312 314 316 316 314 312 310 308 306 303 299 295 291 287 281 276 273 273 276 279 279
354 338 358 332 294 296 312 327 340 2 360 358 145 100 341 320 316 317 313 311 314 315 312 314 320 324 323 320 319 318 317 318 318 313 309 309 311 316 320 320 320 321 321 321 323 323 323 329 339 343 337 332 329 327 325 326 328 326 322 320 317 314 316 318 317 319 321 320 317 315 314 313 311 307 303 299 295 292 288 283 280 279 279 279 280 280
353 333 327 292 314 307 319 348 352 316 316 337 150 257 323 320 326 323 313 311 316 318 321 325 325 324 322 319 319 320 317 316 314 309 308 311 315 319 319 318 319 319 318 320 322 321 326 340 346 338 331 330 328 327 327 327 325 322 318 316 314 317 324 326 323 321 320 319 319 321 320 316 310 304 300 297 294 294 295 295 290 284 280 281 283 284
17 337 334 341 20 5 318 311 273 281 302 61 101 326 330 331 333 329 314 310 317 327 334 331 325 323 322 319 319 321 319 316 311 307 312 317 318 318 318 316 316 316 316 317 317 321 333 343 339 332 328 327 327 327 327 325 322 321 318 317 320 328 331 327 322 320 319 320 324 324 320 313 304 298 296 294 295 297 298 296 292 287 286 289 290 286
39 12 342 341 352 338 311 305 305 310 320 56 331 321 335 333 328 324 310 303 321 341 338 331 324 322 321 320 321 323 321 316 310 310 319 322 320 318 316 314 315 316 316 316 318 329 342 336 330 328 326 325 327 329 326 322 320 319 319 324 329 330 328 324 322 321 319 320 324 322 316 310 304 299 296 294 295 295 293 294 296 295 295 295 292 286
48 17 299 325 329 338 330 326 328 312 307 11 336 325 336 335 327 320 305 299 331 340 333 327 322 320 321 322 322 323 323 317 311 313 320 321 320 318 316 316 317 317 316 318 327 342 340 330 326 325 324 326 329 329 326 323 321 321 326 330 329 325 324 324 323 321 319 321 323 318 312 309 306 302 297 293 292 290 290 296 303 303 300 296 291 287
37 346 339 351 345 344 332 317 302 261 268 319 336 334 336 332 325 322 314 313 332 333 328 325 322 320 321 322 321 323 322 316 311 311 315 317 317 316 316 317 318 318 321 330 344 341 333 328 325 324 327 330 329 327 326 325 324 327 330 329 326 325 324 325 324 323 323 322 319 314 310 308 305 301 297 291 287 286 290 300 306 304 300 296 292 290
26 329 348 360 339 337 336 318 302 267 259 302 329 337 335 330 328 332 324 319 326 326 323 322 320 319 321 320 318 318 314 309 307 307 310 314 314 315 317 317 316 319 328 342 342 335 330 328 328 329 329 328 328 328 329 328 327 327 326 324 324 325 325 325 326 326 324 321 317 313 310 308 304 300 296 289 284 286 295 303 302 299 298 295 293 291
2 328 317 339 333 336 340 316 299 271 238 340 334 334 337 338 336 331 320 319 321 320 319 321 321 319 319 317 315 313 310 309 308 307 309 313 314 314 316 317 319 326 339 341 335 331 330 329 331 331 328 325 328 332 331 329 325 323 323 323 323 324 326 327 328 326 322 320 316 313 311 309 304 300 295 290 288 294 301 301 297 294 293 294 294 294
346 332 326 338 339 325 318 315 301 279 328 341 334 331 341 342 329 321 320 320 319 318 320 323 323 322 320 318 316 314 312 312 311 311 312 313 314 315 315 317 324 335 343 338 332 329 332 333 331 329 327 328 331 332 330 326 323 321 323 323 323 326 328 328 328 325 321 319 316 313 312 309 307 308 304 297 298 304 300 295 294 295 297 300 301 301
162 324 320 320 73 350 320 304 285 287 310 330 332 326 327 329 325 324 323 320 319 323 325 325 325 324 321 319 318 317 316 315 315 316 316 315 316 316 315 320 330 336 336 334 330 329 334 334 328 326 330 334 334 332 330 326 322 321 322 322 324 328 330 330 329 325 321 320 318 315 314 313 317 322 317 304 301 304 298 294 297 300 304 306 306 304
137 290 304 291 228 269 266 261 271 288 308 325 325 318 321 325 328 328 326 323 323 327 328 327 325 323 321 320 320 318 317 317 318 318 317 317 318 317 319 327 334 333 331 331 330 333 334 329 325 327 334 336 335 333 329 325 323 323 322 323 327 330 331 331 329 325 323 322 319 316 315 318 323 328 324 311 305 304 300 300 303 304 308 309 305 302
38 359 290 278 290 291 270 266 284 302 315 319 316 316 323 329 331 331 329 327 326 327 328 327 324 321 321 322 320 319 318 319 319 318 317 317 317 320 326 332 330 329 330 330 331 335 332 326 325 330 334 336 336 333 329 327 327 324 323 325 329 332 332 331 328 325 324 322 319 317 318 320 325 330 329 324 318 311 307 307 304 302 307 308 302 301
97 44 291 298 318 319 303 301 314 319 318 316 317 323 330 332 334 334 332 328 326 327 327 326 323 322 322 322 322 320 319 319 319 318 318 319 320 324 334 333 326 326 330 330 330 333 331 328 329 333 334 336 335 332 330 329 329 327 325 327 331 332 331 329 328 326 324 321 319 319 322 325 328 330 330 328 325 319 313 310 304 300 303 306 304 306
152 215 296 310 314 297 283 297 317 321 318 320 327 332 333 334 334 334 331 329 328 327 327 327 326 324 322 323 323 321 319 319 320 320 321 322 323 331 337 330 325 326 328 326 328 331 330 330 332 333 334 334 332 332 332 331 331 331 329 329 332 332 329 329 328 326 322 321 319 319 322 325 327 328 327 327 326 323 316 311 308 304 304 306 305 307
304 285 302 306 301 286 286 311 329 328 323 329 333 331 329 332 333 331 331 331 330 329 329 328 327 325 324 323 323 321 320 320 321 323 325 326 328 333 332 327 327 329 327 325 328 332 331 331 333 332 332 331 331 331 332 332 332 332 329 329 332 331 328 328 327 324 322 321 319 318 321 323 324 326 325 324 325 323 319 317 315 313 311 309 309 311
323 320 322 311 309 310 313 325 332 327 320 324 327 325 326 329 330 330 330 331 332 332 330 328 326 327 326 325 325 324 322 321 323 325 327 329 330 330 329 328 328 329 327 325 328 331 331 332 333 331 330 330 331 331 332 332 332 331 330 331 331 330 328 327 326 325 324 324 322 321 323 324 324 325 324 323 322 321 321 322 325 327 322 312 314 321
336 323 325 319 308 302 303 313 322 317 308 312 317 320 323 325 327 328 328 328 331 332 331 328 326 327 326 325 326 327 324 322 325 327 329 330 328 327 328 329 329 327 327 328 329 330 331 332 331 331 330 331 331 331 331 331 331 331 332 332 330 327 325 326 326 325 325 324 322 322 323 323 323 323 322 321 319 318 319 321 325 331 331 320 318 329